Location: Most
(50.5133°N, 13.6207°E)
Time: 20:41:11
(UTC+01:00)

ISS - Pass Details

Date: 15 July 2018
Orbit: 402 x 409 km, 51.6° (Epoch: 13 November)

Event Time Altitude Azimuth Distance (km) Brightness Sun altitude
Exits shadow 02:00:06 43° 236° (SW) 595 -3.4 -17.1°
Drops below altitude 10° 02:04:24 10° 77° (ENE) 1,495 -0.6 -17.0°
Enters shadow 03:05:36 -59° 265° (W) 11,375 3.4 -13.7°
Maximum altitude 03:37:44 70° 0° (N) 447 -3.5 -11.0°
